"Pseudo-MPEC" for P10NLQU

Created 2019 May 24 15:07:19 UT using Find_Orb

Click here for an explanation of pseudo-MPECs

 
 Astrometry: 
     P10NLQU  C2019 05 09IVwy/OE$n,qpV:eMlq(kM:Rnq,0v@yyF0v?Lyxt+IjcUC/LLS@,HF51
     P10NLQU  C2019 05 097l233ef3uc3oi2mcrS4%.W44)hB#NDn@V'-AHAq1.fuYcmOp[TX8F51
     P10NLQU  C2019 05 09BFvdhy8fnAstrometry2BO@w;5b#!x4YE=Oq-smToWvHIcp[_U#QF51
     P10NLQU KC2019 05 11pl:NGVL[6LR?,#M%p[N'1QPNG2h!AESl8G@_WFumrMg%Q:^!O3):691
     P10NLQU KC2019 05 113i?E1AAredacted;VN3nuS.Ry]Ldg+;[iqdV$tgG:gX5.icA]8tE691
     P10NLQU KC2019 05 11jM(Dyme*bFN3d*gCYUjMB#bPl%q)=E)ar1,rXKVur*.65vYHQ$uM691
     P10NLQU  C2019 05 11.37051 16 12 09.95 +15 47 55.7    ~5B9M 21.6 GVNEOCPV06
     P10NLQU  C2019 05 11.37393 16 12 10.10 +15 48 01.3    ~5B9M 21.6 GVNEOCPV06
     P10NLQU  C2019 05 11.37735 16 12 10.29 +15 48 07.5    ~5B9M 21.9 GVNEOCPV06
     P10NLQU  C2019 05 11.38077 16 12 10.44 +15 48 14.1    ~5B9M 21.5 GVNEOCPV06
     P10NLQU  C2019 05 14.29266316 15 10.35 +17 16 23.5    ~5E7q 21.0 GVNEOCPH01
     P10NLQU  C2019 05 14.29692616 15 10.56 +17 16 31.3    ~5E7q 21.4 GVNEOCPH01
     P10NLQU  C2019 05 14.30695716 15 11.09 +17 16 49.8    ~5E7q 21.4 GVNEOCPH01
     P10NLQU  C2019 05 14.31449316 15 11.48 +17 17 03.7    ~5E7q 22.0 GVNEOCPH01
     P10NLQU ^C2019 05 15[7#'t03smtkYZ=k,tfX$Onm%(clickoV`j)A'`Hw420-+x9?p*Kj695
     P10NLQU ^C2019 05 15q]HRp%4e5tV;7X=5l)Eyc*QJG-uk$Y:Xed]SOrM_jBwH9f:B1m,p695
     P10NLQU ^C2019 05 22x.@F;ohereks(_QmI4y`M^PI5xb!l+g_7]8E#^;L)4Ui@8T#k;**695
     P10NLQU ^C2019 05 22ET?Duj!b*lyBlVZ-(cu]R;:kJ=\e!@0U`.L5y'Q]tP%f`_shHnUd695
     P10NLQU ^C2019 05 22@476y8WcH=LN,%U]bOgA;Mho(7u]!o]5`thSQ+UH1)T6^kRhXs)+695
     P10NLQU KC2019 05 23SLT\=*sy1-:+OG6Z8l+F\C751IboTA.R88KVl\=`Al-1LcIrnI/7291
     P10NLQU KC2019 05 23`D#/`r=m.+rZ;pXX8J?#P(M#PP2B70EpqrMdR[I$ow@v/XO5*W-.291
     P10NLQU KC2019 05 23m?*^OO^F0'dbgu2+rR[[d[0y?BM*for/F4mv=+Pcpexplanation291
     P10NLQU KC2019 05 24W'2sHa+S37ho!#%UBGqo+Z?Ml\2vy(SZo(Vf5j##_Y4I@+rK?hklL01
     P10NLQU KC2019 05 24Z'X0'a=;0DDf0Y03]Il=hZfbe93*'XP:/LuJj6Z4Zx:eeQhXnV85L01
     P10NLQU KC2019 05 24rXN,UGqX0xS4hjHV$H.rgsIV+fx-_V[EL6cMbv]`)q(s?8RBFJc?L01
     P10NLQU KC2019 05 24t?Kl`IyEY4D_$a3f]Jgvb:oTl7qUtkty74j35$Wt(saIV2)wbllWL01
     P10NLQU KC2019 05 24.04015516 26 42.31 +22 16 50.4    ~5O27 21.2 GVNEOCPJ95
     P10NLQU KC2019 05 24.06346816 26 43.99 +22 17 33.8    ~5O27 21.1 GVNEOCPJ95
     P10NLQU KC2019 05 248o!/JOTx(E3*5F?mXmPQUyaA\9)(+`)w/^-33;f;aSyPSrD1eNt'691
     P10NLQU KC2019 05 24$oc=xl9OS3:6VVoq/nGbfEt+s6nOeN0AA_uCL53Lkiubxida//5n691
     P10NLQU KC2019 05 24]%N]N$!9,e[M$VJ*E^V7MQStqA]'0Rdi!=^W1jvF=UVh_!pl-GFg691
     P10NLQU  C2019 05 24.31846 16 27 05.37 +22 25 39.1    ~5O8M 21.5 GVNEOCPI52
     P10NLQU  C2019 05 24.32292 16 27 05.68 +22 25 47.2    ~5O8M 21.1 GVNEOCPI52
     P10NLQU  C2019 05 24.32868 16 27 06.07 +22 25 57.9    ~5O8M 21.1 GVNEOCPI52
     P10NLQU  C2019 05 24.33314 16 27 06.39 +22 26 05.9    ~5O8M 22.3 GVNEOCPI52

Station data:
(291) LPL/Spacewatch II  (N31.961669 W111.599905)  US/Arizona.  Observers J.
   V. Scotti, R. S. McMillan. 1.8-m f/2.7 reflector + CCD.
(691) Steward Observatory, Kitt Peak - Spacewatch  (N31.962174 W111.600327)
   US/Arizona.  Observer J. V. Scotti. 0.9-m f/3 reflector + CCD.
(695) Kitt Peak  (N31.958398 W111.594670)  US/Arizona.
(F51) Pan-STARRS 1, Haleakala  (N20.707235 W156.255910)  US/Hawaii.
   Observers N. Primak, A. Schultz, S. Watters, J. Thiel, T. Goggia. Measurer
   PS1 Science Consortium. 1.8-m Ritchey-Chrétien + CCD.
(H01) Magdalena Ridge Observatory, Socorro  (N33.984833 W107.189333)  US/New
   Mexico.  Observers W. H. Ryan, E. V. Ryan. Measurer W. H. Ryan. 2.4-m
   f/8.9 reflector + CCD.
(I52) Steward Observatory, Mt. Lemmon Station  (N32.442547 W110.788920)
   US/Arizona.  Observers T. A. Pruyne, B. M. Africano, E. J. Christensen, G.
   A. Farneth, D. C. Fuls, A. R. Gibbs, A. D. Grauer, H. Groeller, J. A.
   Johnson, R. A. Kowalski, S. M. Larson, G. J. Leonard, R. L. Seaman, F. C.
   Shelly. 1.0-m reflector + CCD.
(J95) Great Shefford  (N51.474969 W1.447003)  UK.  Observer P. Birtwhistle.
   0.40-m f/6.0 Schmidt-Cassegrain + CCD.
(L01) Višnjan Observatory, Tičan  (N45.290900 E13.749300)  Croatia.
   Observers K. Korlević, E. Pettarin. Measurer E. Pettarin. 1.0-m f/2.9
   reflector + CCD.
(V06) Catalina Sky Survey-Kuiper  (N32.416847 W110.732550)  US/Arizona.
   Observers T. A. Pruyne, B. M. Africano, E. J. Christensen, G. A. Farneth,
   D. C. Fuls, A. R. Gibbs, A. D. Grauer, H. Groeller, J. A. Johnson, R. A.
   Kowalski, S. M. Larson, G. J. Leonard, R. L. Seaman, F. C. Shelly. 1.55-m
   reflector + CCD.

Orbital elements:  P10NLQU
   Perihelion 2019 Jul 11.462535 +/- 0.00331 TT = 11:06:03 (JD 2458675.962535)
Epoch 2019 May 24.0 TT = JDT 2458627.5   Earth MOID: 0.0768   Ma: 0.0992
M 343.50488116 +/- 0.07             (J2000 ecliptic)          AutoNEOCP
n   0.34036846 +/- 0.00144          Peri.  150.77607 +/- 0.08
a   2.03159203 +/- 0.00574          Node   139.35491 +/- 0.07
e   0.4726099 +/- 0.00137           Incl.    8.15852 +/- 0.016
P   2.90                   H 22.7   G  0.15   U  8.3  
q 1.07144151 +/- 0.000249    Q 2.99174256 +/- 0.0113
From 35 observations 2019 May 9-24; mean residual 0".30
Residuals in arcseconds: 
190509 F51  .06+  .05+    190514 H01  .13-  .24-    190524 L01  .53-  .04+    
190509 F51  .07+  .13+    190514 H01  .16-  .17-    190524 L01  .50-  .46+    
190509 F51  .06-  .27+    190515 695  .27-  .25-    190524 J95  .22-  .48-    
190511 691  .23+  .08-    190515 695  .12+  .14+    190524 J95  .02-  .12-    
190511 691  .08+  .33+    190522 695  .03+  .39+    190524 691  .32+  .43+    
190511 691  .02-  .49+    190522 695  .27+  .31+    190524 691  .25+  .31+    
190511 V06  .13+  .06+    190522 695  .33+  .26+    190524 691  .33+  .01+    
190511 V06  .15-  .49-    190523 291  .81+  .30+    190524 I52  .15-  .05+    
190511 V06  .14+  .44-    190523 291  .11-  .70+    190524 I52  .07-  .14-    
190511 V06  .15-  .02+    190523 291  .24+  .07+    190524 I52  .11-  .13-    
190514 H01  .04-  .26-    190524 L01  .11-  .26-    190524 I52  .10+  .39-    
190514 H01  .22-  .31-    190524 L01  .77-  .62-    

Ephemerides (geocentric):
Date (UTC) HH   RA              Dec         delta   r     elong  mag " sig PA
---- -- -- --  -------------   -----------  ------ ------ -----  --- ---- ---
2019 05 24 15  16 27 30.665   +22 35 14.34  .23988 1.1976 136.3 21.5 .137  49
2019 05 24 16  16 27 34.130   +22 36 31.67  .23970 1.1974 136.3 21.5 .142  50
2019 05 24 17  16 27 37.600   +22 37 48.99  .23953 1.1972 136.2 21.5 .146  51
2019 05 24 18  16 27 41.075   +22 39 06.31  .23935 1.1970 136.2 21.5 .150  52
2019 05 24 19  16 27 44.555   +22 40 23.62  .23917 1.1968 136.2 21.5 .155  53
2019 05 24 20  16 27 48.040   +22 41 40.93  .23899 1.1966 136.2 21.5 .159  53
2019 05 24 21  16 27 51.530   +22 42 58.24  .23881 1.1964 136.1 21.5 .164  54
2019 05 24 22  16 27 55.024   +22 44 15.54  .23863 1.1962 136.1 21.5 .169  55
2019 05 24 23  16 27 58.524   +22 45 32.83  .23845 1.1960 136.1 21.5 .174  56
2019 05 25 00  16 28 02.029   +22 46 50.12  .23827 1.1958 136.1 21.5 .179  56
2019 05 25 01  16 28 05.539   +22 48 07.40  .23809 1.1956 136.0 21.5 .184  57
2019 05 25 02  16 28 09.054   +22 49 24.68  .23792 1.1954 136.0 21.5 .189  57
2019 05 25 03  16 28 12.574   +22 50 41.96  .23774 1.1952 136.0 21.5 .194  58
2019 05 25 04  16 28 16.100   +22 51 59.23  .23756 1.1950 135.9 21.5 .199  59
2019 05 25 05  16 28 19.630   +22 53 16.49  .23738 1.1948 135.9 21.5 .204  59
2019 05 25 06  16 28 23.165   +22 54 33.75  .23720 1.1946 135.9 21.5 .210  60
2019 05 25 07  16 28 26.706   +22 55 51.00  .23703 1.1944 135.9 21.5 .215  60
2019 05 25 08  16 28 30.252   +22 57 08.24  .23685 1.1942 135.8 21.5 .221  60
2019 05 25 09  16 28 33.803   +22 58 25.49  .23667 1.1940 135.8 21.5 .226  61
2019 05 25 10  16 28 37.359   +22 59 42.72  .23649 1.1938 135.8 21.5 .232  61
2019 05 25 11  16 28 40.920   +23 00 59.95  .23632 1.1936 135.8 21.5 .238  62
2019 05 25 12  16 28 44.487   +23 02 17.17  .23614 1.1934 135.7 21.5 .244  62
2019 05 25 13  16 28 48.059   +23 03 34.39  .23596 1.1932 135.7 21.5 .249  62
2019 05 25 14  16 28 51.636   +23 04 51.60  .23579 1.1930 135.7 21.5 .255  63
2019 05 25 15  16 28 55.218   +23 06 08.80  .23561 1.1928 135.7 21.5 .261  63
2019 05 25 16  16 28 58.806   +23 07 26.00  .23543 1.1926 135.6 21.5 .268  63
2019 05 25 17  16 29 02.399   +23 08 43.19  .23526 1.1924 135.6 21.5 .274  64
2019 05 25 18  16 29 05.997   +23 10 00.38  .23508 1.1922 135.6 21.5 .280  64
2019 05 25 19  16 29 09.601   +23 11 17.56  .23490 1.1920 135.6 21.5 .286  64
2019 05 25 20  16 29 13.210   +23 12 34.73  .23473 1.1918 135.5 21.5 .293  65
2019 05 25 21  16 29 16.824   +23 13 51.90  .23455 1.1916 135.5 21.5 .299  65
2019 05 25 22  16 29 20.444   +23 15 09.06  .23437 1.1914 135.5 21.5 .306  65
2019 05 25 23  16 29 24.069   +23 16 26.21  .23420 1.1912 135.5 21.5 .312  65
2019 05 26 00  16 29 27.699   +23 17 43.35  .23402 1.1910 135.4 21.5 .319  66
2019 05 26 01  16 29 31.335   +23 19 00.49  .23385 1.1908 135.4 21.5 .326  66
2019 05 26 02  16 29 34.977   +23 20 17.62  .23367 1.1906 135.4 21.5 .332  66
2019 05 26 03  16 29 38.624   +23 21 34.74  .23350 1.1904 135.4 21.5 .339  66
2019 05 26 04  16 29 42.276   +23 22 51.86  .23332 1.1902 135.3 21.4 .346  66
2019 05 26 05  16 29 45.934   +23 24 08.97  .23315 1.1901 135.3 21.4 .353  67
2019 05 26 06  16 29 49.597   +23 25 26.07  .23297 1.1899 135.3 21.4 .360  67
2019 05 26 07  16 29 53.266   +23 26 43.16  .23280 1.1897 135.3 21.4 .368  67
2019 05 26 08  16 29 56.941   +23 28 00.25  .23262 1.1895 135.2 21.4 .375  67
2019 05 26 09  16 30 00.621   +23 29 17.33  .23245 1.1893 135.2 21.4 .382  67
2019 05 26 10  16 30 04.307   +23 30 34.40  .23227 1.1891 135.2 21.4 .389  67
2019 05 26 11  16 30 07.998   +23 31 51.46  .23210 1.1889 135.2 21.4 .397  68
2019 05 26 12  16 30 11.695   +23 33 08.52  .23192 1.1887 135.1 21.4 .404  68
2019 05 26 13  16 30 15.398   +23 34 25.57  .23175 1.1885 135.1 21.4 .412  68
2019 05 26 14  16 30 19.106   +23 35 42.60  .23157 1.1883 135.1 21.4 .420  68